Simultaneous Nadir Overpasses (SNOs) Predictions

Prediction of SNOs between AQUA and NOAA-19 Satellite Orbit:

Table of predicted SNOs for the next 14.0 days since TLE Epoch: 11/23/2024
Index Date (AQUA) Time (AQUA) Lat,Lon (AQUA) SZA (AQUA ) Date (NOAA-19) Time (NOAA-19) Lat,Lon (NOAA-19) SZA (NOAA-19 ) Distance(km) Time Diff (sec)
1 11/24/2024 17:32:20 -75.61, 98.04 83.70 11/24/2024 17:31:25 -75.60, 98.06 83.70 0.69 55
2 11/24/2024 18:21:42 75.69, -94.54 96.39 11/24/2024 18:22:27 75.65, -94.54 96.36 3.98 45
3 11/26/2024 20:30:51 -75.61, 53.45 83.30 11/26/2024 20:29:59 -75.61, 53.47 83.30 0.58 52
4 11/26/2024 21:20:12 75.64,-138.99 96.75 11/26/2024 21:21:01 75.65,-139.13 96.76 4.11 49
5 11/28/2024 23:29:20 -75.59, 8.93 82.94 11/28/2024 23:28:33 -75.60, 8.85 82.94 2.33 47
6 11/29/2024 00:18:42 75.68, 176.33 97.15 11/29/2024 00:19:34 75.69, 176.39 97.17 2.00 52
7 12/01/2024 02:27:48 -75.60, -35.68 82.59 12/01/2024 02:27:06 -75.62, -35.66 82.58 2.02 42
8 12/01/2024 03:17:10 75.69, 131.72 97.50 12/01/2024 03:18:08 75.66, 131.72 97.48 3.45 58
9 12/03/2024 05:26:14 -75.60, -80.23 82.29 12/03/2024 05:25:40 -75.59, -80.36 82.30 3.70 34
10 12/03/2024 06:15:36 75.69, 87.16 97.81 12/03/2024 06:16:41 75.67, 87.15 97.79 2.45 65
11 12/05/2024 08:24:39 -75.62,-124.86 81.99 12/05/2024 08:24:12 -75.64,-124.78 81.98 2.54 27



Historial Predications of SNOs between AQUA and NOAA-19
